When you browse on this site, cookies collect data to enhance your experience and personalize the content and advertising you see.
Visit our Privacy Policy to learn more. By continuing to use the site, you agree to this use of cookies and data.
  • In Hungary
  • List of Countries
  • For 7 days
  • Water Temperature
  • Satellite Maps
  • Weather Map
  • News
  • Weather Widgets
  • user-avatar
    Login

    Hourly Weather Teremiski

    Today, 19 May, Sunday

    Time Temperature Precipitation Wind Pressure Humidity
    00:00 +17°C° 0 mm 3 mps 745 mmHg 94%
    01:00 +17°C° 0 mm 3 mps 745 mmHg 95%
    02:00 +16°C° 0 mm 3 mps 745 mmHg 96%
    03:00 +16°C° 0 mm 3 mps 745 mmHg 97%
    04:00 +16°C° 0 mm 3 mps 745 mmHg 97%
    05:00 +16°C° 0 mm 3 mps 745 mmHg 97%
    06:00 +17°C° 0 mm 3 mps 745 mmHg 94%
    07:00 +17°C° 0 mm 4 mps 744 mmHg 92%
    08:00 +18°C° 0 mm 4 mps 745 mmHg 85%
    09:00 +20°C° 0 mm 4 mps 744 mmHg 79%
    10:00 +21°C° 0 mm 5 mps 744 mmHg 73%
    11:00 +22°C° 0 mm 5 mps 744 mmHg 67%
    12:00 +22°C° 0.8 mm 6 mps 744 mmHg 71%
    13:00 +22°C° 0.8 mm 6 mps 744 mmHg 74%
    14:00 +22°C° 0 mm 6 mps 744 mmHg 79%
    15:00 +22°C° 0.6 mm 6 mps 744 mmHg 80%
    16:00 +22°C° 0.6 mm 6 mps 744 mmHg 80%
    17:00 +22°C° 0.6 mm 6 mps 744 mmHg 80%
    18:00 +21°C° 0.6 mm 5 mps 744 mmHg 83%
    19:00 +20°C° 0.6 mm 5 mps 744 mmHg 87%
    20:00 +19°C° 0.6 mm 4 mps 744 mmHg 90%
    21:00 +18°C° 0 mm 4 mps 744 mmHg 91%
    22:00 +18°C° 0 mm 4 mps 744 mmHg 91%
    23:00 +18°C° 0 mm 4 mps 744 mmHg 92%

    Tomorrow, 20 May, Monday

    Time Temperature Precipitation Wind Pressure Humidity
    00:00 +17°C° 0 mm 4 mps 744 mmHg 93%
    01:00 +17°C° 0 mm 4 mps 744 mmHg 93%
    02:00 +17°C° 0 mm 4 mps 744 mmHg 94%
    03:00 +17°C° 0 mm 4 mps 744 mmHg 94%
    04:00 +17°C° 0 mm 4 mps 743 mmHg 94%
    05:00 +16°C° 0 mm 5 mps 743 mmHg 95%
    06:00 +16°C° 0.1 mm 5 mps 743 mmHg 93%
    07:00 +17°C° 0.1 mm 5 mps 743 mmHg 91%
    08:00 +17°C° 0.1 mm 6 mps 743 mmHg 90%
    09:00 +19°C° 0 mm 6 mps 743 mmHg 88%
    10:00 +20°C° 0 mm 6 mps 743 mmHg 87%
    11:00 +20°C° 0 mm 6 mps 743 mmHg 85%
    12:00 +22°C° 0.1 mm 6 mps 743 mmHg 79%
    13:00 +23°C° 0.1 mm 7 mps 743 mmHg 72%
    14:00 +26°C° 0.1 mm 7 mps 743 mmHg 66%
    15:00 +23°C° 0.9 mm 6 mps 743 mmHg 73%
    16:00 +22°C° 0.9 mm 6 mps 743 mmHg 80%
    17:00 +21°C° 0.9 mm 5 mps 742 mmHg 86%
    18:00 +20°C° 0.1 mm 5 mps 742 mmHg 86%
    19:00 +20°C° 0.1 mm 5 mps 742 mmHg 86%
    20:00 +20°C° 0.1 mm 5 mps 742 mmHg 86%
    21:00 +19°C° 0.1 mm 4 mps 742 mmHg 87%
    22:00 +19°C° 0.1 mm 4 mps 742 mmHg 88%
    23:00 +19°C° 0.1 mm 4 mps 742 mmHg 90%

    Day after tomorrow, 21 May, Tuesday

    Time Temperature Precipitation Wind Pressure Humidity
    00:00 +18°C° 0 mm 4 mps 742 mmHg 91%
    01:00 +18°C° 0 mm 4 mps 742 mmHg 93%
    02:00 +17°C° 0 mm 4 mps 742 mmHg 94%
    03:00 +17°C° 0 mm 4 mps 742 mmHg 95%
    04:00 +17°C° 0 mm 4 mps 742 mmHg 96%
    05:00 +17°C° 0 mm 4 mps 742 mmHg 97%
    06:00 +17°C° 0 mm 4 mps 742 mmHg 95%
    07:00 +18°C° 0 mm 4 mps 742 mmHg 93%
    08:00 +19°C° 0 mm 4 mps 742 mmHg 91%
    09:00 +19°C° 0 mm 5 mps 742 mmHg 89%
    10:00 +19°C° 0 mm 5 mps 742 mmHg 86%
    11:00 +19°C° 0 mm 5 mps 742 mmHg 84%
    12:00 +19°C° 0.1 mm 5 mps 742 mmHg 84%
    13:00 +19°C° 0.1 mm 5 mps 742 mmHg 84%
    14:00 +19°C° 0.1 mm 5 mps 741 mmHg 85%
    15:00 +20°C° 0.1 mm 6 mps 741 mmHg 79%
    16:00 +21°C° 0.1 mm 6 mps 740 mmHg 74%
    17:00 +22°C° 0.1 mm 7 mps 740 mmHg 69%
    18:00 +20°C° 0.1 mm 6 mps 740 mmHg 72%
    19:00 +17°C° 0.1 mm 6 mps 740 mmHg 74%
    20:00 +16°C° 0.1 mm 6 mps 740 mmHg 77%
    21:00 +15°C° 0 mm 5 mps 740 mmHg 78%
    22:00 +14°C° 0 mm 5 mps 740 mmHg 80%
    23:00 +13°C° 0 mm 5 mps 741 mmHg 82%

    22 May, Wednesday

    Time Temperature Precipitation Wind Pressure Humidity
    00:00 +13°C° 0 mm 5 mps 741 mmHg 83%
    01:00 +13°C° 0 mm 5 mps 741 mmHg 84%
    02:00 +13°C° 0 mm 5 mps 741 mmHg 85%
    03:00 +13°C° 0 mm 5 mps 741 mmHg 87%
    04:00 +12°C° 0 mm 4 mps 741 mmHg 89%
    05:00 +12°C° 0 mm 4 mps 741 mmHg 91%
    06:00 +13°C° 0 mm 4 mps 741 mmHg 87%
    07:00 +15°C° 0 mm 4 mps 742 mmHg 82%
    08:00 +17°C° 0 mm 4 mps 742 mmHg 78%
    09:00 +18°C° 0 mm 4 mps 742 mmHg 73%
    10:00 +20°C° 0 mm 4 mps 742 mmHg 68%
    11:00 +21°C° 0 mm 5 mps 742 mmHg 63%
    12:00 +21°C° 0 mm 5 mps 742 mmHg 62%
    13:00 +22°C° 0 mm 5 mps 742 mmHg 61%
    14:00 +22°C° 0 mm 5 mps 741 mmHg 60%
    15:00 +22°C° 0 mm 5 mps 741 mmHg 61%
    16:00 +22°C° 0 mm 5 mps 741 mmHg 61%
    17:00 +22°C° 0 mm 4 mps 741 mmHg 61%
    18:00 +20°C° 0 mm 3 mps 741 mmHg 68%
    19:00 +19°C° 0 mm 3 mps 741 mmHg 75%
    20:00 +18°C° 0 mm 2 mps 741 mmHg 82%
    21:00 +17°C° 0 mm 2 mps 741 mmHg 86%
    22:00 +16°C° 0 mm 2 mps 741 mmHg 90%
    23:00 +15°C° 0 mm 2 mps 741 mmHg 94%

    23 May, Thursday

    Time Temperature Precipitation Wind Pressure Humidity
    00:00 +14°C° 0 mm 2 mps 741 mmHg 95%
    01:00 +14°C° 0 mm 2 mps 741 mmHg 95%
    02:00 +13°C° 0 mm 1 mps 741 mmHg 96%
    03:00 +13°C° 0 mm 1 mps 741 mmHg 96%
    04:00 +13°C° 0 mm 1 mps 741 mmHg 96%
    05:00 +13°C° 0 mm 1 mps 741 mmHg 96%
    06:00 +15°C° 0 mm 1 mps 741 mmHg 89%
    07:00 +16°C° 0 mm 1 mps 741 mmHg 82%
    08:00 +19°C° 0 mm 1 mps 742 mmHg 75%
    09:00 +19°C° 0.4 mm 2 mps 742 mmHg 72%
    10:00 +20°C° 0.4 mm 2 mps 742 mmHg 68%
    11:00 +23°C° 0.4 mm 2 mps 742 mmHg 64%
    12:00 +21°C° 2.1 mm 2 mps 741 mmHg 67%
    13:00 +21°C° 2.1 mm 2 mps 741 mmHg 71%
    14:00 +21°C° 2.1 mm 2 mps 741 mmHg 74%
    15:00 +21°C° 2.6 mm 2 mps 741 mmHg 76%
    16:00 +21°C° 2.6 mm 2 mps 741 mmHg 78%
    17:00 +20°C° 2.6 mm 2 mps 741 mmHg 79%
    18:00 +19°C° 1.3 mm 3 mps 741 mmHg 83%
    19:00 +18°C° 1.3 mm 4 mps 741 mmHg 87%
    20:00 +16°C° 1.3 mm 6 mps 741 mmHg 90%
    21:00 +14°C° 0.2 mm 6 mps 742 mmHg 91%
    22:00 +13°C° 0.2 mm 5 mps 742 mmHg 92%
    23:00 +12°C° 0.2 mm 5 mps 742 mmHg 93%

    24 May, Friday

    Time Temperature Precipitation Wind Pressure Humidity
    00:00 +10°C° 0.3 mm 5 mps 742 mmHg 92%
    01:00 +9°C° 0.3 mm 5 mps 743 mmHg 91%
    02:00 +8°C° 0.3 mm 5 mps 743 mmHg 91%
    03:00 +8°C° 0 mm 4 mps 743 mmHg 90%
    04:00 +8°C° 0 mm 4 mps 743 mmHg 89%
    05:00 +8°C° 0 mm 4 mps 743 mmHg 89%
    06:00 +10°C° 0 mm 4 mps 743 mmHg 86%
    07:00 +11°C° 0 mm 4 mps 744 mmHg 83%
    08:00 +12°C° 0 mm 4 mps 744 mmHg 79%
    09:00 +13°C° 0 mm 4 mps 744 mmHg 73%
    10:00 +15°C° 0 mm 5 mps 744 mmHg 67%
    11:00 +17°C° 0 mm 5 mps 744 mmHg 61%
    12:00 +17°C° 0 mm 5 mps 744 mmHg 59%
    13:00 +19°C° 0 mm 5 mps 743 mmHg 57%
    14:00 +19°C° 0 mm 5 mps 743 mmHg 55%
    15:00 +19°C° 0 mm 5 mps 743 mmHg 56%
    16:00 +19°C° 0 mm 4 mps 743 mmHg 56%
    17:00 +19°C° 0 mm 4 mps 743 mmHg 57%
    18:00 +18°C° 0 mm 3 mps 743 mmHg 63%
    19:00 +16°C° 0 mm 3 mps 743 mmHg 70%
    20:00 +15°C° 0 mm 2 mps 743 mmHg 77%
    21:00 +14°C° 0 mm 2 mps 743 mmHg 80%
    22:00 +13°C° 0 mm 1 mps 743 mmHg 84%
    23:00 +12°C° 0 mm 1 mps 743 mmHg 87%
    Show more